IRIDIUM 96 [-] (27376 NORAD) Tracking and Keplerian Element Data

This shows tracking and keplerian element data for the satellite.

Feedback or suggestion? Click here.




ElementValue
Catalog27376
NameIRIDIUM 96 [-]
Epoch Orbit27486
Epoch Day195.79071042
Epoch Year2018
RAAN141.7471
Inclination86.3806
Eccentricity0.0286635
Argument of Perigee110.2605
Mean Anonmoly252.9703
Mean Motion15.28461369
Decay Rate0.00028475
L11 27376U 02005E 18195.79071042 .00028475 -12020-5 27873-3 0 9993
L22 27376 86.3806 141.7471 0286635 110.2605 252.9703 15.28461369274868

Live tracking and technical data element details for IRIDIUM 96 [-] (NORAD 27376). IRIDIUM 96 [-] can be tracked NOW for your location showing map with azimuth and elevation plus other details from your city location.

Track the satellite on the map from your city or location and see movement details for azimuth, elevation, latitude, longitude, range, height, and movement on the map or in text.







IsCatalogInMostPopularTable: catalog: 27376, numindb: 38
Update: records affected: 1



GetName: 27376 IRIDIUM 96 [-]

Hit Count: updated at: Mon, 16 Jul 2018 14:45:43 GMT